This is the latest recevied weather packets stored in our database for station/object SV4JYD-14. If no packets are shown the sender has not sent any weather packets the latest 10 day(s).
| Time | Temp. | Humidity | Pressure | Rain* | Wind** | Luminosity | Snow |
|---|---|---|---|---|---|---|---|
| 1777276542 | 20° C | 51% | 1018 hPa | 0 mm | - | - | - |
| 1777275642 | 19.44° C | 56% | 1018 hPa | 0 mm | - | - | - |
| 1777274742 | 18.89° C | 57% | 1018 hPa | 0 mm | - | - | - |
| 1777273841 | 19.44° C | 57% | 1018 hPa | 0 mm | - | - | - |
| 1777272941 | 18.89° C | 57% | 1018 hPa | 0 mm | - | - | - |
| 1777272041 | 18.89° C | 57% | 1018 hPa | 0 mm | - | - | - |
| 1777271141 | 18.89° C | 57% | 1018 hPa | 0 mm | - | - | - |
| 1777270240 | 18.33° C | 58% | 1018 hPa | 0 mm | - | - | - |
| 1777269340 | 18.33° C | 59% | 1017 hPa | 0 mm | - | - | - |
| 1777268440 | 17.78° C | 59% | 1017 hPa | 0 mm | - | - | - |
| 1777267540 | 17.78° C | 62% | 1017 hPa | 0 mm | - | - | - |
| 1777266639 | 17.22° C | 64% | 1018 hPa | 0 mm | - | - | - |
| 1777265739 | 16.67° C | 66% | 1017 hPa | 0 mm | - | - | - |
| 1777264839 | 16.11° C | 67% | 1017 hPa | 0 mm | - | - | - |
| 1777263939 | 15.56° C | 71% | 1017 hPa | 0 mm | - | - | - |
| 1777263038 | 13.89° C | 77% | 1017 hPa | 0 mm | - | - | - |
| 1777262138 | 13.33° C | 80% | 1017 hPa | 0 mm | - | - | - |
| 1777261238 | 13.33° C | 80% | 1017 hPa | 0 mm | - | - | - |
| 1777260338 | 13.33° C | 80% | 1017 hPa | 0 mm | - | - | - |
| 1777259437 | 13.89° C | 79% | 1017 hPa | 0 mm | - | - | - |
| 1777258537 | 13.89° C | 79% | 1016 hPa | 0 mm | - | - | - |
| 1777256737 | 13.33° C | 77% | 1017 hPa | 0 mm | - | - | - |
* Rain latest hour (hover to see other rain measurements)
** Current wind speed in m/s (hover to see current wind gust speed)